TINTIN B (43217 NORAD) Tracking and Keplerian Element Data

This shows tracking and keplerian element data for the satellite.

Feedback or suggestion? Click here.




ElementValue
Catalog43217
NameTINTIN B
Epoch Orbit6930
Epoch Day144.94238813
Epoch Year2019
RAAN153.5938
Inclination97.4591
Eccentricity0.0013874
Argument of Perigee116.5594
Mean Anonmoly243.7064
Mean Motion15.20139425
Decay Rate1.352E-05
L11 43217U 18020C 19144.94238813 .00001352 00000-0 65569-4 0 9991
L22 43217 97.4591 153.5938 0013874 116.5594 243.7064 15.20139425 69308

Live tracking and technical data element details for TINTIN B (NORAD 43217). TINTIN B can be tracked NOW for your location showing map with azimuth and elevation plus other details from your city location.

Track the satellite on the map from your city or location and see movement details for azimuth, elevation, latitude, longitude, range, height, and movement on the map or in text.







IsCatalogInMostPopularTable: catalog: 43217, numindb: 318
Update: records affected: 1



GetName: 43217 TINTIN B

Hit Count: updated at: Sat, 25 May 2019 12:49:33 GMT